Flint, MI

2:48 AM EDT on September 29, 2016 (GMT -0400)
Bishop International

Weather History for KFNT - March, 2013

Change the Weather History Date:

Wednesday, March 6, 2013

  Actual Average Record
Temperature  
Mean Temperature 34 °F 30 °F  
Max Temperature 40 °F 39 °F 67 °F (2009)
Min Temperature 27 °F 21 °F -7 °F (1960)
Degree Days  
Heating Degree Days 31 35  
Month to date heating degree days 239 213  
Since 1 July heating degree days 4892 5301  
Cooling Degree Days 0 0  
Month to date cooling degree days 0 0  
Year to date cooling degree days 0 0  
Moisture  
Dew Point 25 °F    
Average Humidity 75    
Maximum Humidity 85    
Minimum Humidity 64    
Precipitation  
Precipitation 0.00 in 0.06 in 0.77 in (1956)
Month to date precipitation 0.02 0.34  
Year to date precipitation 5.48 3.45  
Snow  
Snow 0.00 in 0.30 in 4.50 in (1971)
Month to date snowfall 0.2 1.7  
Since 1 July snowfall 38.7 40.3  
Snow Depth 1.00 in    
Sea Level Pressure  
Sea Level Pressure 30.09 in    
Wind  
Wind Speed 7 mph (North)    
Max Wind Speed 14 mph    
Max Gust Speed 17 mph    
Visibility 10 miles    
Events      
T = Trace of Precipitation, MM = Missing Value Source: NWS Daily Summary

Daily Weather History Graph

Daily Weather History Graph

Search for Another Location

Airport or City:

Trip Planner

Search our weather history database for the weather conditions in past years. The results will help you decide how hot, cold, wet, or windy it might be!

Date:

Astronomy

Mar. 06, 2013 Rise Set
Actual Time 7:02 AM EST 6:30 PM EST
Civil Twilight 6:33 AM EST 6:59 PM EST
Nautical Twilight 6:01 AM EST 7:32 PM EST
Astronomical Twilight 5:28 AM EST 8:05 PM EST
Moon 3:16 AM EST (3/6) 1:05 PM EST (3/6)
Length of Visible Light 12h 25m
Length of Day
11h 28m
Waning Crescent, 30% of the Moon is Illuminated
Mar 6
Waning Crescent
Mar 11
New
Mar 19
First Quarter
Mar 27
Full
Apr 3
Last Quarter

Hourly Weather History & Observations

Time (EST) Temp. Windchill Dew Point Humidity Pressure Visibility Wind Dir Wind Speed Gust Speed Precip Events Conditions
12:37 AM 28.4 °F 18.5 °F 21.2 °F 74% 29.90 in 10.0 mi NNE 11.5 mph - N/A   Mostly Cloudy
12:53 AM 28.0 °F 18.6 °F 21.9 °F 78% 29.93 in 10.0 mi NE 10.4 mph - N/A   Overcast
1:53 AM 28.0 °F 19.3 °F 21.9 °F 78% 29.93 in 10.0 mi NNE 9.2 mph - N/A   Overcast
2:53 AM 28.9 °F 19.2 °F 21.9 °F 75% 29.94 in 10.0 mi NNE 11.5 mph - N/A   Overcast
3:08 AM 28.4 °F 19.1 °F 23.0 °F 80% 29.91 in 10.0 mi NNE 10.4 mph - N/A   Overcast
3:53 AM 28.9 °F 19.2 °F 23.0 °F 78% 29.95 in 10.0 mi NE 11.5 mph - N/A   Overcast
4:53 AM 30.0 °F 21.7 °F 23.0 °F 75% 29.98 in 10.0 mi NNE 9.2 mph - N/A   Overcast
5:53 AM 28.9 °F 19.2 °F 23.0 °F 78% 30.00 in 10.0 mi NNE 11.5 mph - N/A   Overcast
6:16 AM 28.4 °F 20.4 °F 23.0 °F 80% 29.98 in 10.0 mi NNE 8.1 mph - N/A   Overcast
6:53 AM 28.9 °F 20.4 °F 23.0 °F 78% 30.04 in 10.0 mi NNE 9.2 mph - N/A   Overcast
7:53 AM 28.0 °F 20.8 °F 21.9 °F 78% 30.07 in 9.0 mi North 6.9 mph - N/A   Overcast
8:53 AM 28.9 °F 20.4 °F 23.0 °F 78% 30.11 in 9.0 mi North 9.2 mph - N/A   Overcast
9:53 AM 30.9 °F 23.5 °F 24.1 °F 76% 30.13 in 9.0 mi NE 8.1 mph - N/A   Overcast
10:53 AM 33.1 °F 25.5 °F 25.0 °F 72% 30.14 in 10.0 mi NE 9.2 mph - N/A   Overcast
11:17 AM 33.8 °F 25.8 °F 26.6 °F 75% 30.10 in 10.0 mi NE 10.4 mph - N/A   Overcast
11:53 AM 35.1 °F 30.1 °F 27.0 °F 72% 30.14 in 10.0 mi NNE 5.8 mph - N/A   Mostly Cloudy
12:53 PM 37.0 °F 32.4 °F 26.1 °F 65% 30.17 in 10.0 mi NW 5.8 mph - N/A   Overcast
1:53 PM 37.9 °F 35.5 °F 27.0 °F 65% 30.16 in 10.0 mi NNW 3.5 mph - N/A   Mostly Cloudy
2:53 PM 37.9 °F 32.7 °F 28.0 °F 68% 30.15 in 10.0 mi West 6.9 mph - N/A   Overcast
3:53 PM 37.9 °F 32.1 °F 28.0 °F 68% 30.16 in 10.0 mi West 8.1 mph - N/A   Overcast
4:53 PM 36.0 °F 28.0 °F 28.0 °F 73% 30.18 in 10.0 mi West 11.5 mph - N/A   Overcast
5:43 PM 35.6 °F 27.5 °F 26.6 °F 70% 30.16 in 10.0 mi NW 11.5 mph - N/A   Overcast
5:53 PM 36.0 °F 29.0 °F 28.0 °F 73% 30.19 in 10.0 mi NW 9.2 mph - N/A   Overcast
6:53 PM 35.1 °F 29.3 °F 28.0 °F 76% 30.21 in 10.0 mi NNW 6.9 mph - N/A   Overcast
7:53 PM 34.0 °F - 28.0 °F 79% 30.21 in 10.0 mi Calm Calm - N/A   Overcast
8:53 PM 34.0 °F - 28.0 °F 79% 30.22 in 10.0 mi Calm Calm - N/A   Overcast
9:53 PM 32.0 °F - 27.0 °F 82% 30.23 in 10.0 mi Calm Calm - N/A   Mostly Cloudy
10:53 PM 30.0 °F - 27.0 °F 88% 30.23 in 7.0 mi Calm Calm - N/A   Mostly Cloudy
11:53 PM 30.9 °F 26.2 °F 27.0 °F 85% 30.23 in 7.0 mi West 4.6 mph - N/A   Overcast